Regional Weather Roundup
Issued by NWS

Home | Current Version | Previous Version | Graphics & Text | Print | Product List | Glossary On
Versions: 1 2 3 4 5 6 7 8 9 10 11 12 13 14 15 16 17 18 19 20 21 22 23 24 25 26 27 28 29 30 31 32 33 34 35 36 37 38 39 40 41 42 43 44 45 46 47 48 49 50
000
ASUS43 KOAX 231502
RWRNE

WEATHER ROUNDUP FOR NEBRASKA
NATIONAL WEATHER SERVICE OMAHA NE
1000 AM CDT SAT JUL 23 2016

NOTES: SATELLITE DATA IS BEING USED TO AUGMENT CLOUD COVER ABOVE
       12000 FEET.
       "FAIR" INDICATES FEW OR NO CLOUDS BELOW 12,000 FEET WITH NO
       SIGNIFICANT WEATHER AND/OR OBSTRUCTIONS TO VISIBILITY.

  * THESE STATIONS DO NOT REPORT WEATHER SUCH AS RAIN...SNOW OR FOG.

NEZ001>004-019>022-054>056-231600-
NEBRASKA PANHANDLE

CITY           SKY/WX    TMP DP  RH WIND       PRES   REMARKS
SCOTTSBLUFF    SUNNY     81  56  42 W8        29.98R
ALLIANCE       SUNNY     80  60  50 W9        29.95R
CHADRON        SUNNY     80  55  42 W21G29    29.91R
SIDNEY         CLOUDY    85  58  39 SW10      30.03S
$$

NEZ057>060-069>072-079>082-231600-
SOUTHWEST NEBRASKA

CITY           SKY/WX    TMP DP  RH WIND       PRES   REMARKS
NORTH PLATTE   CLOUDY    82  68  62 SW10      29.92R
IMPERIAL       SUNNY     78  64  61 S13       29.96S
LEXINGTON      CLOUDY    80  67  63 SW9       29.89R
MCCOOK         LGT RAIN  76  67  73 VRB5      29.92R
OGALLALA       CLOUDY    77  67  71 SW6       29.95R
$$

NEZ005>010-023>029-035>040-094-231600-
NORTH CENTRAL NEBRASKA

CITY           SKY/WX    TMP DP  RH WIND       PRES   REMARKS
VALENTINE      SUNNY     81  64  56 S7        29.84R
AINSWORTH      SUNNY     82  65  58 S10G16    29.87S
BROKEN BOW     SUNNY     78  68  71 S3        29.90R
O`NEILL        MOSUNNY   80  68  67 S12       29.86S
ORD            CLOUDY    78  69  73 S8        29.86F
THEDFORD       SUNNY     83  66  56 SW16G23   29.89F
$$

NEZ041-046>049-061>064-073>077-083>087-231600-
SOUTH CENTRAL NEBRASKA

CITY           SKY/WX    TMP DP  RH WIND       PRES   REMARKS
GRAND ISLAND   CLOUDY    78  71  79 S5        29.86S
AURORA         CLOUDY    80  72  77 S6        29.85F
HASTINGS       LGT RAIN  78  69  73 S12       29.86S
HEBRON         CLOUDY    82  67  59 S8        29.83F
HOLDREGE       CLOUDY    78  67  68 S9        29.86S
KEARNEY *      CLOUDY    81  70  69 S9        29.87S
YORK           CLOUDY    81  70  69 S8        29.85F
$$

NEZ011>018-030>034-042>045-231600-
NORTHEAST NEBRASKA

CITY           SKY/WX    TMP DP  RH WIND       PRES   REMARKS
NORFOLK        CLOUDY    78  72  81 SW6       29.86R
ALBION         CLOUDY    79  71  75 SW3       29.87S
BLAIR          PTSUNNY   80  73  77 S7        29.84S
FREMONT        CLOUDY    80  71  75 SW5       29.84F
TEKAMAH        CLOUDY    80  73  79 CALM      29.83F
WAYNE          MOSUNNY   79  75  89 S6        29.85F
$$

NEZ050>053-065>068-078-088>093-231600-
SOUTHEAST NEBRASKA

CITY           SKY/WX    TMP DP  RH WIND       PRES   REMARKS
LINCOLN        CLOUDY    83  71  67 S9        29.84F
OMAHA EPPLEY   CLOUDY    82  72  71 S10       29.83F
BEATRICE       CLOUDY    80  70  70 S10       29.85F
FALLS CITY     CLOUDY    83  74  74 S9        29.88F
NEBRASKA CITY  CLOUDY    78  73  83 S10       29.87S
PLATTSMOUTH    CLOUDY    79  72  79 S6        29.85F
$$

NEZ044-045-051>053-067-231600-
OMAHA AREA

CITY           SKY/WX    TMP DP  RH WIND       PRES   REMARKS
OMAHA EPPLEY   CLOUDY    82  72  71 S10       29.83F
BLAIR          PTSUNNY   80  73  77 S7        29.84S
FREMONT        CLOUDY    80  71  75 SW5       29.84F
MILLARD        CLOUDY    82  73  72 CALM      29.83F
OFFUTT AFB     LGT RAIN  80  73  78 SE7       29.84S
PLATTSMOUTH    CLOUDY    79  72  79 S6        29.85F
WAHOO          FAIR      80  73  79 S3        29.83F
$$




USA.gov is the U.S. government's official web portal to all federal, state and local government web resources and services.